Hourly Weather Brecon

Today, 5 August, Wednesday

Time Temperature Precipitation Wind Pressure Humidity
00:00 +16°C° 0 mm 7 mps 742 mmHg 94%
01:00 +16°C° 0 mm 7 mps 742 mmHg 94%
02:00 +16°C° 0 mm 6 mps 742 mmHg 94%
03:00 +15°C° 0 mm 6 mps 742 mmHg 94%
04:00 +15°C° 0 mm 6 mps 742 mmHg 94%
05:00 +16°C° 0 mm 6 mps 741 mmHg 94%
06:00 +16°C° 0 mm 6 mps 741 mmHg 94%
07:00 +16°C° 0 mm 6 mps 741 mmHg 90%
08:00 +17°C° 0 mm 6 mps 742 mmHg 86%
09:00 +19°C° 0 mm 6 mps 742 mmHg 83%
10:00 +18°C° 0 mm 7 mps 742 mmHg 80%
11:00 +20°C° 0 mm 7 mps 741 mmHg 77%
12:00 +21°C° 0 mm 8 mps 741 mmHg 74%
13:00 +20°C° 0.6 mm 8 mps 741 mmHg 81%
14:00 +18°C° 0.6 mm 7 mps 741 mmHg 87%
15:00 +17°C° 0.6 mm 7 mps 741 mmHg 94%
16:00 +17°C° 0.1 mm 7 mps 742 mmHg 94%
17:00 +17°C° 0.1 mm 7 mps 742 mmHg 94%
18:00 +17°C° 0.1 mm 6 mps 742 mmHg 95%
19:00 +17°C° 0.1 mm 5 mps 742 mmHg 95%
20:00 +16°C° 0.1 mm 5 mps 743 mmHg 96%
21:00 +17°C° 0.1 mm 4 mps 743 mmHg 97%
22:00 +16°C° 0 mm 3 mps 743 mmHg 97%
23:00 +16°C° 0 mm 2 mps 744 mmHg 98%

Tomorrow, 6 August, Thursday

Time Temperature Precipitation Wind Pressure Humidity
00:00 +15°C° 0 mm 2 mps 744 mmHg 98%
01:00 +15°C° 0 mm 1 mps 744 mmHg 98%
02:00 +15°C° 0 mm 1 mps 744 mmHg 98%
03:00 +14°C° 0 mm 0 mps 744 mmHg 98%
04:00 +15°C° 0 mm 1 mps 744 mmHg 97%
05:00 +15°C° 0 mm 1 mps 745 mmHg 97%
06:00 +16°C° 0 mm 1 mps 745 mmHg 97%
07:00 +18°C° 0 mm 1 mps 745 mmHg 95%
08:00 +18°C° 0 mm 2 mps 745 mmHg 93%
09:00 +19°C° 0 mm 2 mps 746 mmHg 91%
10:00 +20°C° 0.2 mm 3 mps 746 mmHg 86%
11:00 +21°C° 0.2 mm 3 mps 746 mmHg 81%
12:00 +22°C° 0.2 mm 4 mps 746 mmHg 77%
13:00 +22°C° 0.1 mm 4 mps 746 mmHg 79%
14:00 +22°C° 0.1 mm 4 mps 746 mmHg 81%
15:00 +22°C° 0.1 mm 5 mps 746 mmHg 83%
16:00 +22°C° 0.1 mm 4 mps 746 mmHg 85%
17:00 +21°C° 0.1 mm 4 mps 746 mmHg 86%
18:00 +21°C° 0.1 mm 4 mps 746 mmHg 87%
19:00 +20°C° 0.1 mm 3 mps 746 mmHg 90%
20:00 +19°C° 0.1 mm 3 mps 746 mmHg 93%
21:00 +18°C° 0.1 mm 2 mps 747 mmHg 95%
22:00 +18°C° 0 mm 2 mps 747 mmHg 96%
23:00 +17°C° 0 mm 2 mps 747 mmHg 96%

Day after tomorrow, 7 August, Friday

Time Temperature Precipitation Wind Pressure Humidity
00:00 +17°C° 0 mm 2 mps 747 mmHg 96%
01:00 +18°C° 0 mm 1 mps 747 mmHg 96%
02:00 +16°C° 0 mm 1 mps 747 mmHg 96%
03:00 +16°C° 0 mm 1 mps 747 mmHg 95%
04:00 +16°C° 0 mm 1 mps 747 mmHg 95%
05:00 +18°C° 0 mm 1 mps 747 mmHg 95%
06:00 +18°C° 0 mm 1 mps 747 mmHg 94%
07:00 +20°C° 0 mm 1 mps 747 mmHg 88%
08:00 +20°C° 0 mm 2 mps 747 mmHg 82%
09:00 +23°C° 0 mm 2 mps 747 mmHg 76%
10:00 +24°C° 0 mm 2 mps 747 mmHg 70%
11:00 +26°C° 0 mm 2 mps 747 mmHg 64%
12:00 +27°C° 0 mm 3 mps 746 mmHg 58%
13:00 +28°C° 0 mm 3 mps 746 mmHg 57%
14:00 +28°C° 0 mm 4 mps 746 mmHg 56%
15:00 +29°C° 0 mm 4 mps 746 mmHg 55%
16:00 +27°C° 0 mm 4 mps 746 mmHg 62%
17:00 +25°C° 0 mm 4 mps 746 mmHg 69%
18:00 +22°C° 0 mm 3 mps 746 mmHg 76%
19:00 +21°C° 0 mm 3 mps 746 mmHg 78%
20:00 +20°C° 0 mm 3 mps 747 mmHg 81%
21:00 +19°C° 0 mm 3 mps 747 mmHg 83%
22:00 +18°C° 0 mm 3 mps 747 mmHg 87%
23:00 +17°C° 0 mm 3 mps 747 mmHg 91%

8 August, Saturday

Time Temperature Precipitation Wind Pressure Humidity
00:00 +17°C° 0 mm 3 mps 748 mmHg 94%
01:00 +16°C° 0 mm 2 mps 748 mmHg 94%
02:00 +16°C° 0 mm 2 mps 748 mmHg 95%
03:00 +16°C° 0 mm 2 mps 748 mmHg 95%
04:00 +16°C° 0 mm 2 mps 748 mmHg 94%
05:00 +16°C° 0 mm 3 mps 749 mmHg 93%
06:00 +16°C° 0 mm 3 mps 749 mmHg 93%
07:00 +17°C° 0 mm 3 mps 749 mmHg 86%
08:00 +18°C° 0 mm 4 mps 750 mmHg 79%
09:00 +19°C° 0 mm 4 mps 750 mmHg 73%
10:00 +20°C° 0 mm 4 mps 750 mmHg 69%
11:00 +20°C° 0 mm 4 mps 750 mmHg 65%
12:00 +21°C° 0 mm 4 mps 750 mmHg 61%
13:00 +21°C° 0 mm 4 mps 750 mmHg 61%
14:00 +22°C° 0 mm 4 mps 750 mmHg 62%
15:00 +22°C° 0 mm 4 mps 750 mmHg 63%
16:00 +21°C° 0 mm 4 mps 750 mmHg 66%
17:00 +21°C° 0 mm 4 mps 750 mmHg 69%
18:00 +20°C° 0 mm 4 mps 750 mmHg 72%
19:00 +19°C° 0 mm 4 mps 750 mmHg 73%
20:00 +18°C° 0 mm 4 mps 750 mmHg 74%
21:00 +15°C° 0 mm 4 mps 751 mmHg 75%
22:00 +15°C° 0 mm 4 mps 750 mmHg 77%
23:00 +14°C° 0 mm 4 mps 750 mmHg 78%

9 August, Sunday

Time Temperature Precipitation Wind Pressure Humidity
00:00 +13°C° 0 mm 4 mps 750 mmHg 79%
01:00 +13°C° 0 mm 4 mps 750 mmHg 82%
02:00 +12°C° 0 mm 4 mps 750 mmHg 84%
03:00 +12°C° 0 mm 4 mps 749 mmHg 86%
04:00 +12°C° 0 mm 4 mps 749 mmHg 87%
05:00 +12°C° 0 mm 4 mps 749 mmHg 87%
06:00 +12°C° 0 mm 4 mps 749 mmHg 87%
07:00 +13°C° 0 mm 4 mps 749 mmHg 86%
08:00 +14°C° 0 mm 4 mps 749 mmHg 84%
09:00 +15°C° 0 mm 5 mps 749 mmHg 82%
10:00 +17°C° 0 mm 4 mps 749 mmHg 82%
11:00 +18°C° 0 mm 4 mps 749 mmHg 81%
12:00 +19°C° 0 mm 4 mps 749 mmHg 80%
13:00 +19°C° 0 mm 4 mps 749 mmHg 81%
14:00 +19°C° 0 mm 4 mps 748 mmHg 82%
15:00 +19°C° 0 mm 4 mps 748 mmHg 82%
16:00 +19°C° 0 mm 4 mps 748 mmHg 84%
17:00 +18°C° 0 mm 4 mps 748 mmHg 85%
18:00 +18°C° 0 mm 3 mps 748 mmHg 87%
19:00 +18°C° 0.1 mm 3 mps 748 mmHg 88%
20:00 +18°C° 0.1 mm 3 mps 748 mmHg 90%
21:00 +17°C° 0.1 mm 3 mps 748 mmHg 92%
22:00 +17°C° 0 mm 3 mps 747 mmHg 91%
23:00 +17°C° 0 mm 4 mps 747 mmHg 91%

10 August, Monday

Time Temperature Precipitation Wind Pressure Humidity
00:00 +17°C° 0 mm 4 mps 747 mmHg 91%
01:00 +15°C° 0 mm 4 mps 747 mmHg 91%
02:00 +15°C° 0 mm 4 mps 747 mmHg 91%
03:00 +15°C° 0 mm 4 mps 746 mmHg 91%
04:00 +14°C° 0 mm 3 mps 746 mmHg 91%
05:00 +14°C° 0 mm 3 mps 746 mmHg 92%
06:00 +14°C° 0 mm 3 mps 746 mmHg 92%
07:00 +16°C° 0 mm 3 mps 746 mmHg 89%
08:00 +17°C° 0 mm 3 mps 746 mmHg 85%
09:00 +17°C° 0 mm 3 mps 746 mmHg 82%
10:00 +18°C° 0 mm 3 mps 746 mmHg 80%
11:00 +19°C° 0 mm 3 mps 746 mmHg 79%
12:00 +19°C° 0 mm 3 mps 746 mmHg 77%
13:00 +19°C° 0 mm 3 mps 746 mmHg 78%
14:00 +19°C° 0 mm 3 mps 746 mmHg 79%
15:00 +19°C° 0 mm 3 mps 746 mmHg 80%
16:00 +19°C° 0 mm 2 mps 746 mmHg 81%
17:00 +19°C° 0 mm 2 mps 746 mmHg 82%
18:00 +19°C° 0 mm 2 mps 746 mmHg 83%
19:00 +17°C° 0 mm 2 mps 746 mmHg 87%
20:00 +16°C° 0 mm 2 mps 746 mmHg 90%
21:00 +15°C° 0 mm 1 mps 746 mmHg 93%
22:00 +15°C° 0 mm 1 mps 746 mmHg 94%
23:00 +15°C° 0 mm 1 mps 746 mmHg 94%
Show more